Location: Huesca
(42.1318°N, 0.4078°W)
Time: 21:48:35
(UTC+02:00)

DIWATA 2B (PO-101) - Pass Details

Date: 02 May 2024
Orbit: 575 x 589 km, 98.1° (Epoch: 20 May)

Event Time Altitude Azimuth Distance (km) Brightness Sun altitude
Exits shadow 06:02:43 - 190° (S) 2,667 ? -9.6°
Reaches altitude 10° 06:04:42 10° 199° (SSW) 1,910 ? -9.3°
Maximum altitude 06:08:25 32° 263° (W) 1,026 ? -8.7°
Drops below altitude 10° 06:12:09 10° 327° (NNW) 1,919 ? -8.1°
Sets 06:14:30 0° 337° (NNW) 2,822 ? -7.7°
